Location: Fauquembergues
(50.6005°N, 2.0987°E)
Time: 10:46:31
(UTC+00:00)

SeaSat 1 - Pass Details

Date: 14 July 2020
Orbit: 744 x 747 km, 108.0° (Epoch: 05 August)

Event Time Altitude Azimuth Distance (km) Brightness Sun altitude
Rises 02:13:21 0° 30° (NNE) 3,203 7.9 -11.8°
Reaches altitude 10° 02:15:37 10° 30° (NNE) 2,275 6.5 -11.6°
Maximum altitude 02:20:35 89° 122° (ESE) 755 2.5 -11.2°
Enters shadow 02:24:47 15° 211° (SSW) 1,966 3.9 -10.8°
